Regional Weather Roundup
Issued by NWS Upton, NY

Current Version | Previous Version | Graphics & Text | Print | Product List | Glossary Off
Versions: 1 2 3 4 5 6 7 8 9 10 11 12 13 14 15 16 17 18 19 20 21 22 23 24 25 26 27

000
ASUS41 KOKX 161109
RWROKX

Regional Weather Roundup
National Weather Service New York NY
600 AM EST TUE JAN 16 2018

Note: "FAIR" indicates few or no clouds below 12,000 feet with no
significant weather and/or obstructions to visibility.

NYZ071-072-176-178-NJZ106-104-161200-
New York City Metro Area

CITY           SKY/WX    TMP DP  RH WIND       PRES   REMARKS
Central Park   CLOUDY    26  20  77 E6        30.51S WCI  19
Bronx Bot Gard   N/A     27  18  69 E3        30.52R
Bronx Lehman C   N/A     27  19  74 E5          N/A  WCI  21
LaGuardia Arpt CLOUDY    26  20  77 E7        30.50S WCI  18
Queens College   N/A     27  23  86 E6          N/A  WCI  20
Kennedy Intl   CLOUDY    26  23  88 NE8       30.51F WCI  18
Breezy Point     N/A    N/A N/A N/A NE5         N/A
Brooklyn Coll    N/A     28  23  80 NE2         N/A
Staten Island    N/A     27  19  74 E7          N/A  WCI  19
Newark/Liberty CLOUDY    26  18  71 NE6       30.50F WCI  19
Teterboro      CLOUDY    25  17  72 NE6       30.50S WCI  18
$$

NYZ177-179-078>081-161200-
Long Island New York

CITY           SKY/WX    TMP DP  RH WIND       PRES   REMARKS
Jones Beach      N/A    N/A N/A N/A N9          N/A
Wantagh          N/A     27  23  86 N5          N/A  WCI  21
Matinecock Pt    N/A    N/A N/A N/A E5          N/A
Farmingdale    CLOUDY    26  22  84 N3        30.50F
MacArthur/ISP  CLOUDY    26  22  84 N7        30.49F WCI  18
Shirley        CLOUDY    24  21  88 N3        30.51R
Mt Sinai Harb    N/A    N/A N/A N/A N2          N/A
Westhampton    FAIR      16  12  84 NW5       30.52R WCI   9
East Hampton   FAIR      19  17  94 CALM      30.50S
Southold         N/A     25  19  80 NE3         N/A
Montauk          N/A     31  24  75 NE5       30.51R WCI  26
$$

NYZ052-065-067-161200-
Hudson Valley

CITY           SKY/WX    TMP DP  RH WIND       PRES   REMARKS
White Plains   FAIR      22  17  81 CALM      30.47R
Larchmont Harb   N/A    N/A N/A N/A E2          N/A
Croton On Huds   N/A    N/A N/A N/A E2          N/A
Somers           N/A     23  18  80 SE3         N/A
Brewster         N/A     21  14  73 S2          N/A
Newburgh       FLURRIES  21  18  86 SE6       30.46F WCI  14
Montgomery     CLOUDY    22  16  78 CALM      30.46R
Otisville        N/A     21  18  86 S1          N/A
Warwick          N/A     23  19  86 NW2         N/A
Suffern          N/A     23  18  80 SE1         N/A
Poughkeepsie   LGT SNOW  22  15  75 CALM      30.48F
Albany         CLOUDY    16  11  80 CALM      30.47R
$$

NJZ001-105-106-008-010-013-015-019>022-104-161200-
New Jersey

CITY           SKY/WX    TMP DP  RH WIND       PRES   REMARKS
Newark/Liberty CLOUDY    26  18  71 NE6       30.50F WCI  19
Teterboro      CLOUDY    25  17  72 NE6       30.50S WCI  18
Caldwell       CLOUDY    24  17  74 E6        30.50S WCI  17
Somerville     CLOUDY    25  19  78 CALM      30.48R
Linden         CLOUDY    26  17  68 E5        30.51R WCI  20
Perth Amboy      N/A    N/A N/A N/A E10         N/A
Sussex         CLOUDY    22  16  78 CALM      30.45S
Andover          N/A     22  17  81 CALM      30.45S
Trenton        CLOUDY    27  21  78 E3        30.48R
Millville      CLOUDY    29  27  92 E5        30.47S WCI  24
Atlantic City  CLOUDY    28  26  92 NE3       30.48R
Wrightstown    CLOUDY    27  23  86 E6        30.45R WCI  20
Toms River     CLOUDY    27  24  89 N5        30.50S WCI  22
Belmar         CLOUDY    27  24  89 NE7       30.50S WCI  19
$$

PAZ047>061-062-071-161200-
Eastern Pennsylvania

CITY           SKY/WX    TMP DP  RH WIND       PRES   REMARKS
Philadelphia   CLOUDY    30  24  78 E6        30.49R WCI  24
Allentown      LGT SNOW  27  22  81 E5        30.46R WCI  22
Scranton       LGT SNOW  24  21  88 CALM      30.40R FOG
$$

CTZ002-004>006-009-010-012-RIZ004-006-007-MAZ004-011-015-161200-
Southern New England

 In CT

CITY           SKY/WX    TMP DP  RH WIND       PRES   REMARKS
Bradley Intl   CLOUDY    21  10  62 CALM      30.50S
Hartford       CLOUDY   N/A N/A N/A NE3       30.52F
Danbury        CLOUDY    22  11  62 CALM      30.49R
Wtrbury/Oxford CLOUDY    18  12  77 W3        30.47R
Norwalk Harbor   N/A    N/A N/A N/A N3          N/A
Bridgeport     CLOUDY    22  12  65 N6        30.52S WCI  14
Meriden        CLOUDY    19  11  70 W3        30.51S
New Haven      CLOUDY    21  10  62 CALM      30.51S
Chester        PTSUNNY   18  12  79 CALM      30.48F
Groton         FAIR      21  13  71 CALM      30.51S
Willimantic    CLOUDY    23  14  68 N3        30.50S

 In RI

CITY           SKY/WX    TMP DP  RH WIND       PRES   REMARKS
Providence     CLOUDY    23  13  65 N7        30.52R WCI  15
Block Island   FAIR      27  25  92 NE7       30.51R WCI  19
Westerly       CLOUDY    21  16  81 CALM      30.52R

In MA

CITY           SKY/WX    TMP DP  RH WIND       PRES   REMARKS
Boston         CLOUDY    21  14  74 N3        30.53R
Worcester      CLOUDY    17   5  59 CALM      30.44R
Westfield      CLOUDY    20   8  60 N3        30.49S
Provincetown   CLOUDY    30  25  81 MISG        N/A
Nantucket      CLOUDY    31  30  96 N12       30.49R WCI  22
$$

ANZ330-335-338-340-345-350-353-355-161200-
Coastal Marine Observations


STATION/POSITION TIME  SKY/WX   TEMP    WIND        PRES    VSBY  WAVE
                                AIR SEA DIR/SP/G                  HT/PER
                 (UTC)          (F)     (DEG/KT/KT) (MB)    (MI)  (FT/S)
NY Harb Entrance 1050            30 42   40/  8/ 10 1032.5          5/10
20 S Fire Island 1050            30 39   30/ 10/ 12 1032.5          5/ 9
15 E Barnegat Li 1030               42                N/A           6/ 9
Hudson Canyon    1050            40 53   50/  8/ 10 1031.7          8/11
Kings Point      1048            24 31  130/  3/  4 1034.1
Execution Rocks  NOT AVBL
Western LI Sound NOT AVBL
Central LI Sound 1000            25      10/  6/ 10   N/A           1
Robbins Reef     1048            25      20/  5/  6 1033.4
$$


>>>>>>>>>>>>>>>>>>>>>>>>>>>> KEY <<<<<<<<<<<<<<<<<<<<<<<<<<<
>                                                          <
>     SKY/WX - Sky Condition/Present Weather               <
>     TMP    - Temperature in Fahrenheit                   <
>     DP     - Dew Point in Fahrenheit                     <
>     RH     - Relative Humidity in Percent                <
>     WIND   - Direction (from) and Speed in MPH           <
>     PRES   - Mean Sea Level Pressure (inches of Hg)      <
>     WCI    - Wind Chill Index                            <
>     VSB    - Visibility in Miles                         <
>     HX     - Heat Index                                  <
>     TC     - Temperature in Celsius                      <
>     VRB    - Varibale Wind Direction                     <
>                                                          <
>>>>>>>>>>>>>>>>>>>>>>>>>>>> KEY <<<<<<<<<<<<<<<<<<<<<<<<<<<




USA.gov is the U.S. government's official web portal to all federal, state and local government web resources and services.